Other Public Products
Issued by NWS Grand Forks, ND

Home | Current Version | Previous Version | Graphics & Text | Print | Product List | Glossary On
Versions: 1 2 3 4 5 6 7 8 9 10 11 12 13 14 15 16 17 18 19 20 21 22 23 24 25 26 27 28 29 30 31 32 33 34 35 36 37 38 39 40 41 42 43 44 45 46 47 48 49 50
000
FPUS83 KFGF 212031
OPUFGF
PRAIRIE TO PINES WEATHER ROUNDUP
NATIONAL WEATHER SERVICE EASTERN NORTH DAKOTA/GRAND FORKS ND
300 PM CDT TUE OCT 21 2014

 **SATELLITE DATA USED TO AUGMENT SKY COVER AT AUTOMATED STATIONS**
 *****  WEATHER ACROSS EASTERN NORTH DAKOTA  *****

CITY           SKY/WX    TMP DP  RH WIND       PRES   REMARKS
GRAND FORKS    SUNNY     65  42  43 SE29G36   29.87F
GRAND FORKS AF SUNNY     66  42  41 S26G32    29.86F
GRAND CITY NWS   N/A     64 N/A N/A SE38        N/A
BUXTON           N/A     66  39  37 SE25G39     N/A
DEVILS LAKE    SUNNY     64  43  45 SE22G30   29.76F
FARGO          SUNNY     67  41  38 SE28G36   29.90F
WAHPETON ARPT  CLEAR     66  36  32 SE28G35   29.94F
$$

 *****  WEATHER ACROSS CENTRAL AND WESTERN NORTH DAKOTA  *****

CITY           SKY/WX    TMP DP  RH WIND       PRES   REMARKS
JAMESTOWN      SUNNY     73  42  32 SE22G31   29.79F
BISMARCK       SUNNY     80  45  28 S24       29.68F
MINOT          SUNNY     70  41  34 SE14      29.66F
MINOT AFB      SUNNY     68  43  40 SE16      29.66F
GARRISON         N/A     70  43  37 S10       29.67F
WILLISTON      SUNNY     72  42  34 SE12      29.60F
DICKINSON      SUNNY     76  45  33 S20       29.63F
HETTINGER      SUNNY     79  43  27 S18G25    29.68F
$$

 *****  OTHER OBSERVATIONS NORTHEAST NORTH DAKOTA  *****

CITY           SKY/WX    TMP DP  RH WIND       PRES   REMARKS
WALHALLA         N/A     63  45  51 SE24      29.82F
LANGDON        FAIR      64  41  42 S30G37    29.80F
CAVALIER       FAIR      63  43  48 SE21G29   29.84F
GRAFTON        FAIR      63  43  48 SE29G35   29.86F
CANDO          FAIR      64  41  42 SE21G30   29.76F
FORT TOTTEN      N/A     67  41  38 S17       29.95S
ROLLA          FAIR      64  39  39 S20G26    29.76F
RUGBY          FAIR      68  45  42 SE16G25   29.71F
 ***** THE ABOVE OBSERVATIONS ARE NON NWS ARE NOT QUALITY
        CONTROLLED AND MAY MIS-REPORT RAIN FOR SNOW...
$$

 *****  OTHER OBSERVATIONS SOUTHEAST NORTH DAKOTA *****

CITY           SKY/WX    TMP DP  RH WIND       PRES   REMARKS
COOPERSTOWN    NOT AVBL
VALLEY CITY    FAIR      68  43  40 SE21G28   29.84F
OAKES            N/A     79  45  29 S18G26    29.83F HAZE
GWINNER        CLEAR     72  45  37 SE24      29.87F
SHEYENNE NWR     N/A     69  41  36 SE21      29.95S
BUFFALO          N/A     67  35  31 SE25        N/A
WYNDMERE         N/A     70  41  35 SE18        N/A
 ***** THE ABOVE OBSERVATIONS ARE NON NWS ARE NOT QUALITY
       CONTROLLED AND MAY MIS-REPORT RAIN FOR SNOW...
$$

  *****  WEATHER ACROSS NORTHERN MINNESOTA  *****

CITY           SKY/WX    TMP DP  RH WIND       PRES   REMARKS
FLAG ISLAND    SUNNY     52  41  66 SE17      30.00F
WARROAD        SUNNY     57  43  58 SE15G22   30.00F
ROSEAU         SUNNY     59  43  55 SE14      29.98F
HALLOCK        SUNNY     64  39  39 SE26      29.88F
THF RVR FALLS  SUNNY     63  39  42 SE21G26   29.94F
HALSTAD          N/A     66  37  35 S26         N/A
FOSSTON        SUNNY     63  37  39 SE12G18   29.98F
BAUDETTE       SUNNY     55  38  52 SE13G23   30.05F
WASKISH        SUNNY     55  39  54 SE16G22   30.05F
CROOKSTON      SUNNY     64  41  42 S24       29.92F
$$
  *****  WEATHER ACROSS CENTRAL AND WEST MINNESOTA  *****

CITY           SKY/WX    TMP DP  RH WIND       PRES   REMARKS
BEMIDJI        SUNNY     55  40  56 SE18      30.04F
PARK RAPIDS    SUNNY     57  38  48 SE22      30.05F
WADENA         SUNNY     57  39  51 SE18      30.04F
DETROIT LAKES  SUNNY     59  41  51 SE22G29   30.00S
MOORHEAD       SUNNY     66  37  34 SE26G33   29.92F
FERGUS FALLS   SUNNY     63  37  39 SE23G30   29.98F
ELBOW LAKE     FAIR      62  41  45 SE24G31   29.99F
MORRIS MN      SUNNY     64  43  45 SE23G29   29.99S
STAPLES        SUNNY     55  37  50 SE13G21   30.07F
WHEATON        SUNNY     64  41  42 SE23G31   29.96S
$$
  *****  WEATHER ELSEWHERE ACROSS MINNESOTA  *****

CITY           SKY/WX    TMP DP  RH WIND       PRES   REMARKS
DULUTH         MOSUNNY   47  35  63 E12       30.20F
INTRNTL FALLS  SUNNY     49  35  58 SE15      30.12F
ELY            CLOUDY    41  34  75 SE13      30.21S
CLOQUET        SUNNY     48  36  61 E9        30.18S
BRAINERD       SUNNY     53  39  59 VRB7G18   30.11F
HIBBING        SUNNY     48  34  58 SE17      30.18S
ALEXANDRIA     SUNNY     59  40  49 SE23G31   30.05F
SAINT CLOUD    SUNNY     59  39  47 SE16      30.12F
MINNEAPOLIS    SUNNY     56  40  55 E9        30.16F
$$

  *****  WEATHER ACROSS SOUTH DAKOTA  *****

CITY           SKY/WX    TMP DP  RH WIND       PRES   REMARKS
SIOUX FALLS    SUNNY     73  44  35 S20G25    29.98F
BROOKINGS      NOT AVBL
WATERTOWN      SUNNY     73  42  32 S20G26    29.94F
HURON          SUNNY     80  41  24 S17G25    29.88F
SISSETON         N/A     70  42  36 S22G31    29.91F
ABERDEEN       SUNNY     78  43  28 S17G26    29.84F
MITCHELL       SUNNY     81  44  27 S15G23    29.91F
PIERRE         SUNNY     84  39  20 S28G36    29.77F
MOBRIDGE       SUNNY     82  47  29 S24       29.70F
RAPID CITY     SUNNY     82  44  26 S17       29.75F
$$

  *****  SOME WEATHER IN NEARBY STATES *****

CITY           SKY/WX    TMP DP  RH WIND       PRES   REMARKS
GLASGOW MT     SUNNY     72  45  37 SE10      29.56F
GREAT FALLS MT RAIN      46  45  93 W14G23    29.77R FOG
CHEYENNE WY    PTSUNNY   70  33  25 MISG      29.96F
SCOTTSBLUFF NE MOSUNNY   73  46  38 SE14      29.87F
OMAHA NE       SUNNY     73  40  30 S10       30.05F
DES MOINES IA  SUNNY     66  44  45 SE7       30.11F
DAVENPORT IA   SUNNY     57  36  45 E8        30.18S
CHICAGO IL     CLOUDY    49  39  68 N13       30.19R
EAU CLAIRE WI  SUNNY     54  35  48 SE8       30.19F
LA CROSSE WI   SUNNY     57  38  48 CALM      30.19F
$$

  *****  SOME NATIONAL WEATHER *****

CITY           SKY/WX    TMP DP  RH WIND       PRES   REMARKS
LA GUARDIA NY  PTSUNNY   65  54  67 E10       29.83S
RALEIGH NC     PTSUNNY   71  48  43 VRB5      29.84S
ATLANTA GA     MOSUNNY   76  51  41 NW17G23   29.95F
NEW ORLEANS LA SUNNY     78  53  41 N6        30.00F
OKLAHOMA CITY  MOSUNNY   82  57  42 S12       30.04F
ALBUQUERQUE NM PTSUNNY   64  44  48 VRB3      30.11F
SALT LAKE CITY PTSUNNY   61  38  42 NW20G25   30.00F
LOS ANGELES CA PTSUNNY   72  58  61 SW8       29.89F
BOISE ID       PTSUNNY   55  44  66 N6        30.04F
SEATTLE WA     LGT RAIN  58  50  75 SW13      29.94R
$$

*** WEATHER ACROSS MANITOBA...SASKATCHEWAN AND ONTARIO ***
                ***ONTARIO***

CITY           SKY/WX    TMP DP  RH WIND       PRES   REMARKS
GERALDTON      MOSUNNY   37  28  70 SE3       30.29F
THUNDER BAY    MOSUNNY   45  32  61 E10       30.29
SIOUX LOOKOUT  MOSUNNY   43  34  70 S9        30.17
TORONTO        LGT RAIN  46  43  87 N17       29.98R FOG
BIG TROUT LK   SUNNY     45  36  70 S16G25    30.03F
PICKLE LAKE    MOSUNNY   46  30  53 S13G21    30.15F
DRYDEN         MOSUNNY   45  36  70 SE18G25   30.13F
KENORA         SUNNY     52  37  58 SE14G24   30.04
$$
                *** MANITOBA***

CITY           SKY/WX    TMP DP  RH WIND       PRES   REMARKS
BRANDON        SUNNY     66  43  42 S20       29.73
DAUPHIN        SUNNY     66  46  48 E18       29.69F
ISLAND LAKE    SUNNY     54  37  54 S13G21    29.86F
PILOT MOUND      N/A     64  39  39 SE25G32     N/A
THE PAS        MOSUNNY   63  43  48 SE14      29.58F
THOMPSON       MOSUNNY   57  45  62 S15G21    29.64F
WINNIPEG       SUNNY     61  39  44 SE24G32   29.87F
LYNN LAKE      SUNNY     52  43  71 SE8       29.54F
CHURCHILL      CLOUDY    41  37  87 SW10      29.63F
GILLAM         MOSUNNY   57  39  51 SW18G26   29.69F
$$
                ***SASKATCHEWAN***

CITY           SKY/WX    TMP DP  RH WIND       PRES   REMARKS
ESTEVAN        MOSUNNY   70  43  37 E14       29.63F
KINDERSLEY     PTSUNNY   63  37  39 NW8G18    29.55
LLOYDMINSTER   PTSUNNY   59  41  51 N9G18     29.58S
PRINCE ALBERT  PTSUNNY   68  43  40 VRB2      29.52
REGINA         MOSUNNY   70  46  43 SE16      29.58F



USA.gov is the U.S. government's official web portal to all federal, state and local government web resources and services.